Wind_Speed
9 8 7 6 6 7 7 8 8 8 8 7 6 5 4 3 3 3 3 3 4 5 6 7 9 10 11 12 12 11 9 7 5 5 6 6 7 7 7 7 8 8 9
7 6 6 6 6 6 7 7 7 7 7 7 6 6 5 4 4 4 5 5 6 6 7 7 7 8 9 9 10 10 8 6 4 3 4 5 6 6 6 5 6 7 8
5 5 5 5 5 6 6 6 7 7 7 7 7 7 7 7 7 7 8 9 9 10 10 10 9 8 8 7 7 7 7 6 4 2 3 4 5 5 5 5 5 5 7
5 5 5 5 6 6 7 7 8 8 8 9 9 9 10 10 10 10 11 11 12 13 14 14 13 12 11 9 7 6 5 4 3 1 2 4 4 5 5 5 5 5 7
7 6 6 6 7 8 8 8 9 9 10 10 10 11 11 12 12 12 12 13 14 15 16 17 16 16 15 13 11 8 6 4 2 1 2 4 5 5 5 5 5 6 7
9 8 8 8 9 9 10 10 10 11 11 11 11 12 12 13 13 14 14 14 15 16 17 18 18 18 18 17 15 13 10 8 6 4 3 4 6 6 6 5 5 6 7
11 10 10 10 10 11 11 12 12 13 12 12 13 13 13 13 14 14 15 15 16 17 18 18 19 19 20 20 19 17 15 12 10 8 7 6 6 7 7 7 6 6 7
12 11 11 12 12 12 12 12 13 13 13 13 13 14 14 14 15 15 16 17 18 19 20 20 21 21 21 21 21 20 19 17 15 13 11 10 8 8 9 9 8 7 7
12 13 13 13 13 13 13 14 14 14 14 15 15 15 15 16 17 18 19 20 20 21 21 21 21 22 22 22 21 21 21 21 20 18 16 14 13 11 11 11 10 9 8
15 15 15 15 15 15 15 16 16 16 17 17 17 17 18 18 19 20 21 22 22 23 23 22 22 23 23 23 23 23 21 22 23 22 21 19 17 16 14 13 13 12 11
18 19 19 18 18 19 18 18 19 19 19 19 19 20 20 21 21 22 22 23 24 24 23 22 22 21 22 22 23 22 22 22 24 25 24 23 22 21 19 17 16 15 13
21 21 21 21 20 21 21 21 21 22 21 21 21 21 22 22 23 23 24 25 25 24 23 23 23 23 22 22 22 21 21 20 21 24 26 26 26 25 24 22 20 19 17
21 22 23 22 22 23 23 23 24 23 22 23 23 23 23 24 24 24 25 26 26 25 24 23 23 24 23 23 22 20 19 20 21 22 24 26 28 28 28 26 25 23 21
20 21 22 24 25 24 25 25 24 22 22 23 23 24 25 26 26 26 27 27 27 26 25 24 23 24 23 23 22 21 20 19 20 21 24 26 29 30 30 30 29 27 25
19 20 21 23 24 24 24 23 24 23 23 24 26 27 27 27 28 28 28 28 27 27 26 25 24 24 24 24 23 22 21 20 20 21 22 24 28 31 32 32 31 30 29
19 19 20 21 22 24 24 24 25 25 26 27 28 28 28 28 29 29 29 29 29 29 28 27 27 26 26 25 24 24 22 22 22 22 23 24 27 30 32 34 34 33 31
17 18 19 21 23 25 26 26 27 28 28 28 28 29 29 30 31 31 31 31 31 31 30 29 28 28 27 26 25 24 23 22 22 23 24 24 25 28 31 34 35 34 33
18 19 21 22 24 25 26 27 28 28 29 29 29 30 30 31 31 31 31 31 32 31 31 31 30 29 28 27 26 25 24 23 23 24 24 24 25 27 30 33 35 34 33
18 20 21 23 24 26 27 28 29 29 30 29 29 30 30 30 31 31 31 32 32 32 32 32 31 30 30 29 28 27 26 25 23 23 24 25 26 27 30 32 33 34 34
19 20 22 24 25 27 28 28 29 29 30 30 30 30 30 30 31 31 32 32 32 32 33 32 32 31 31 31 30 29 28 26 25 24 24 26 26 27 29 32 33 33 33
19 21 22 24 26 27 28 29 29 29 30 30 30 30 29 29 30 30 31 31 32 33 33 34 33 33 32 32 31 30 30 28 27 26 25 25 26 27 29 31 32 33 34
19 21 23 25 26 27 28 28 29 29 29 29 29 29 29 29 29 29 30 31 31 32 32 33 33 33 33 33 33 32 31 30 29 27 26 26 26 27 28 30 32 33 34
20 21 23 24 26 27 28 29 29 30 30 30 30 30 30 30 30 29 30 31 31 31 32 32 32 33 33 34 34 34 33 33 31 30 28 27 27 27 28 30 31 33 34
18 20 21 23 24 25 26 27 28 29 29 30 31 31 31 31 30 30 30 31 31 31 32 32 32 32 33 34 34 34 34 34 34 33 31 30 29 29 30 30 30 32 34
17 18 20 21 22 23 24 25 26 26 27 28 29 30 30 30 30 30 30 31 31 32 32 32 32 32 33 33 34 34 35 36 36 36 35 34 32 32 31 32 31 32 33
17 19 20 22 22 23 24 25 25 25 26 27 27 28 29 29 30 30 31 31 32 33 33 34 34 34 34 33 33 34 35 37 37 37 38 37 36 34 33 32 33 33 34
Wind_Direction
17 11 10 13 16 20 20 20 20 19 19 19 20 21 17 12 8 358 349 345 347 348 351 355 358 4 11 15 20 25 30 39 59 76 88 100 110 110 104 100 98 100 103
10 9 12 19 22 21 18 15 11 8 4 0 357 355 349 339 326 314 305 301 302 304 310 319 329 339 351 1 9 15 22 27 44 77 92 98 110 121 118 112 107 107 108
351 349 356 2 4 2 2 359 354 350 345 340 335 332 328 322 313 304 298 293 291 290 291 293 298 305 316 328 343 357 9 18 27 71 111 113 118 129 136 134 127 121 118
317 318 326 334 335 336 339 340 340 335 330 326 323 321 319 315 309 303 297 294 291 289 289 288 288 289 291 295 304 316 336 355 10 48 142 147 144 144 145 149 148 141 132
302 301 304 313 319 322 326 328 330 329 326 322 320 318 315 314 311 307 303 299 295 292 290 288 286 284 281 280 281 282 285 292 308 307 182 176 171 167 161 159 159 155 148
297 295 299 306 311 316 319 321 322 322 323 321 320 318 316 315 314 312 309 305 301 296 293 289 287 284 281 275 271 268 264 259 256 250 225 197 189 183 179 173 168 165 160
295 295 301 307 311 314 316 318 320 321 322 322 321 318 315 314 314 313 312 309 305 301 297 294 292 288 283 277 270 263 257 251 245 242 235 220 205 198 193 185 179 173 168
292 296 301 306 310 313 314 316 319 321 322 322 321 318 316 313 310 309 308 308 306 303 300 296 293 291 289 282 275 265 255 250 245 240 236 230 220 210 205 200 193 188 180
282 287 291 295 298 302 305 308 312 314 315 315 315 315 313 310 306 304 304 304 303 302 300 298 295 291 291 285 280 272 259 251 247 241 237 232 228 222 216 210 204 201 197
274 275 278 283 286 288 292 296 300 302 304 307 308 310 309 307 305 303 301 301 300 299 298 296 294 293 291 288 284 276 263 252 248 243 239 235 231 229 225 219 212 208 206
272 272 271 272 277 279 281 285 290 292 294 297 299 302 302 304 303 303 301 299 299 297 295 293 292 294 293 292 290 283 272 257 250 246 242 237 233 231 229 226 221 215 211
272 270 271 270 273 275 278 280 283 284 285 290 293 296 298 300 301 300 300 300 299 298 295 293 291 291 293 293 291 289 279 267 254 249 244 239 234 233 232 230 227 222 218
273 269 271 269 273 277 279 281 279 279 282 288 289 292 295 298 299 298 298 299 299 297 296 294 291 291 292 292 292 292 285 273 261 252 247 241 235 232 232 232 231 228 224
273 273 274 279 280 280 280 282 280 281 283 287 288 290 293 295 295 295 296 297 296 295 293 292 290 289 291 290 289 288 286 279 269 259 251 244 237 233 232 232 232 231 229
280 279 281 282 281 282 286 288 292 287 287 288 290 290 291 291 292 292 292 293 293 292 291 290 288 287 287 287 286 284 283 277 270 263 255 246 239 235 232 231 231 232 232
282 280 281 282 284 288 291 291 292 293 293 292 291 291 290 290 290 290 290 290 290 289 289 288 286 284 284 284 282 281 281 277 270 262 256 248 241 235 231 230 231 232 232
284 283 284 285 287 289 290 291 292 292 292 292 291 290 289 289 289 289 288 287 287 286 285 284 283 281 281 281 280 278 276 277 271 263 256 249 242 236 232 231 231 232 233
286 287 288 289 290 292 293 294 294 294 294 294 293 292 291 291 290 289 287 286 285 284 282 281 280 278 278 277 277 275 273 273 272 264 256 248 243 236 232 231 232 233 233
295 296 297 298 299 300 300 301 300 299 298 298 297 295 294 293 292 290 288 287 285 283 281 279 278 276 274 274 273 273 271 270 268 264 255 248 243 238 233 230 231 232 233
303 305 306 308 308 308 308 307 306 304 303 302 301 299 297 296 294 291 289 288 285 283 281 279 277 275 273 271 270 269 268 267 265 263 256 247 241 237 234 231 231 231 232
314 315 316 316 316 314 313 311 310 308 307 305 303 301 299 298 296 294 291 289 286 284 282 280 277 275 272 270 268 266 264 262 261 260 255 247 241 238 234 231 230 230 230
322 322 322 320 318 317 315 314 312 310 308 306 303 301 300 298 297 294 292 290 288 285 283 280 277 274 271 268 265 263 261 260 257 256 252 247 242 239 234 231 231 230 229
326 325 322 320 318 316 314 311 309 307 305 303 302 301 299 297 296 294 292 290 288 286 283 280 277 274 271 268 264 261 258 256 255 252 249 245 243 239 233 232 232 229 227
325 323 320 318 317 315 313 310 308 306 305 304 303 302 301 300 298 296 294 292 290 287 285 282 279 275 271 267 263 259 256 254 251 249 246 243 240 238 234 230 229 229 227
325 325 325 324 323 323 322 320 317 314 312 310 309 307 306 304 302 300 297 295 292 289 286 284 281 277 273 268 263 259 255 252 249 246 244 242 239 236 234 233 231 229 228
331 331 332 332 331 331 330 330 328 325 323 320 318 316 314 311 309 306 302 298 294 291 287 284 281 277 273 268 263 259 255 251 247 245 243 241 239 236 234 232 232 231 230
Height
5907 5906 5906 5905 5904 5903 5902 5902 5902 5902 5902 5902 5902 5902 5902 5901 5901 5901 5901 5900 5900 5900 5900 5900 5900 5900 5899 5899 5898 5898 5897 5896 5896 5896 5895 5895 5895 5896 5896 5897 5897 5897 5898
5908 5907 5906 5905 5904 5903 5903 5902 5902 5902 5901 5901 5901 5902 5902 5901 5901 5901 5900 5900 5899 5899 5899 5899 5899 5899 5898 5898 5898 5897 5897 5896 5896 5896 5895 5895 5895 5896 5897 5898 5898 5898 5899
5908 5907 5906 5905 5904 5903 5903 5902 5902 5901 5901 5901 5900 5900 5900 5900 5900 5900 5899 5899 5898 5898 5897 5897 5897 5897 5897 5897 5897 5897 5897 5896 5896 5896 5895 5895 5896 5896 5897 5898 5899 5899 5900
5908 5907 5905 5904 5903 5903 5902 5901 5901 5901 5900 5900 5899 5899 5898 5898 5898 5898 5897 5897 5896 5896 5895 5895 5895 5895 5895 5895 5896 5896 5896 5896 5895 5895 5895 5896 5896 5896 5897 5898 5899 5900 5900
5908 5906 5905 5904 5903 5902 5901 5900 5900 5899 5899 5898 5898 5897 5897 5896 5895 5895 5895 5894 5894 5893 5893 5892 5892 5892 5892 5893 5893 5894 5894 5894 5894 5895 5895 5895 5896 5896 5897 5897 5898 5899 5900
5907 5905 5904 5903 5902 5901 5900 5899 5898 5898 5897 5897 5896 5895 5895 5894 5893 5892 5892 5891 5890 5890 5889 5889 5889 5889 5889 5889 5890 5890 5891 5892 5893 5893 5894 5894 5895 5896 5896 5897 5898 5899 5900
5906 5904 5903 5902 5901 5899 5899 5898 5897 5896 5896 5895 5894 5893 5893 5892 5891 5890 5889 5888 5887 5886 5886 5885 5885 5885 5885 5885 5886 5886 5888 5889 5890 5891 5892 5893 5894 5895 5895 5896 5897 5898 5899
5904 5903 5901 5900 5899 5898 5897 5896 5895 5894 5894 5893 5892 5891 5890 5889 5888 5887 5886 5885 5884 5883 5882 5881 5880 5880 5880 5880 5881 5882 5883 5885 5886 5888 5889 5891 5892 5893 5894 5895 5896 5897 5898
5902 5901 5899 5898 5897 5896 5894 5894 5893 5892 5891 5890 5889 5888 5887 5886 5885 5884 5883 5882 5880 5879 5878 5877 5876 5875 5875 5874 5875 5876 5878 5880 5882 5884 5886 5888 5889 5891 5892 5893 5895 5896 5897
5898 5897 5896 5895 5894 5893 5891 5890 5890 5889 5888 5887 5886 5885 5884 5883 5882 5880 5879 5878 5876 5875 5874 5873 5872 5871 5870 5869 5870 5871 5872 5874 5876 5878 5881 5883 5886 5887 5889 5891 5893 5894 5896
5894 5893 5892 5891 5890 5889 5888 5887 5886 5885 5884 5883 5882 5881 5880 5879 5877 5876 5874 5873 5872 5870 5870 5869 5867 5866 5865 5864 5865 5865 5866 5868 5870 5872 5875 5878 5881 5883 5885 5888 5890 5891 5893
5890 5889 5887 5886 5885 5884 5883 5882 5881 5879 5879 5878 5878 5877 5876 5874 5873 5871 5870 5868 5867 5866 5865 5864 5863 5862 5861 5860 5860 5860 5860 5862 5864 5866 5868 5871 5875 5878 5881 5883 5886 5888 5890
5884 5883 5882 5880 5879 5879 5878 5876 5875 5874 5874 5874 5873 5872 5871 5869 5868 5866 5865 5864 5862 5861 5860 5859 5859 5858 5856 5856 5855 5855 5855 5856 5858 5859 5862 5864 5868 5872 5875 5878 5881 5883 5886
5879 5878 5877 5876 5874 5873 5872 5871 5869 5868 5868 5868 5868 5867 5866 5864 5863 5861 5860 5859 5857 5856 5855 5854 5854 5853 5852 5851 5851 5850 5850 5850 5852 5853 5855 5858 5861 5864 5868 5872 5875 5878 5881
5875 5874 5873 5872 5869 5867 5866 5866 5864 5863 5863 5863 5862 5861 5860 5859 5857 5856 5854 5853 5851 5850 5849 5849 5848 5848 5847 5846 5846 5846 5846 5846 5846 5847 5849 5851 5853 5857 5861 5865 5869 5872 5875
5870 5870 5869 5867 5865 5863 5862 5862 5861 5860 5859 5858 5857 5855 5854 5852 5851 5849 5848 5847 5845 5844 5843 5843 5842 5842 5841 5841 5841 5840 5840 5840 5840 5841 5842 5844 5847 5850 5853 5858 5861 5865 5868
5866 5866 5865 5864 5862 5861 5860 5859 5857 5856 5854 5853 5851 5849 5847 5846 5844 5843 5841 5840 5838 5837 5836 5836 5836 5835 5835 5835 5835 5834 5834 5834 5834 5835 5836 5838 5840 5843 5846 5850 5854 5858 5862
5863 5862 5861 5860 5858 5857 5855 5854 5852 5850 5848 5846 5844 5842 5840 5838 5837 5835 5833 5832 5831 5830 5829 5829 5828 5829 5828 5828 5828 5828 5828 5828 5829 5829 5830 5831 5834 5836 5840 5843 5847 5851 5855
5858 5857 5856 5854 5853 5851 5849 5847 5845 5843 5841 5839 5837 5835 5833 5831 5829 5827 5826 5824 5823 5822 5821 5821 5821 5821 5821 5821 5821 5822 5822 5822 5822 5822 5824 5825 5827 5830 5833 5836 5840 5844 5848
5854 5853 5851 5849 5847 5845 5843 5840 5838 5836 5834 5832 5830 5828 5826 5824 5822 5820 5818 5817 5815 5814 5813 5813 5813 5813 5813 5813 5814 5814 5815 5815 5816 5816 5817 5818 5820 5823 5826 5829 5833 5837 5841
5850 5849 5846 5844 5841 5839 5836 5834 5832 5829 5827 5824 5823 5821 5819 5817 5814 5812 5811 5809 5807 5806 5805 5804 5804 5804 5804 5805 5806 5806 5807 5808 5809 5809 5810 5812 5814 5816 5819 5822 5826 5830 5834
5847 5845 5842 5839 5837 5834 5831 5828 5826 5823 5821 5818 5816 5814 5812 5810 5807 5805 5803 5801 5799 5798 5796 5796 5795 5796 5795 5796 5797 5798 5799 5801 5801 5803 5803 5805 5807 5809 5812 5815 5818 5822 5827
5844 5842 5839 5836 5833 5829 5826 5823 5820 5817 5814 5812 5809 5806 5804 5802 5800 5798 5796 5794 5791 5790 5788 5787 5787 5787 5786 5787 5788 5789 5790 5791 5793 5795 5796 5798 5800 5802 5805 5808 5811 5815 5819
5843 5840 5837 5834 5830 5826 5822 5818 5815 5811 5808 5805 5802 5799 5796 5794 5792 5790 5788 5786 5783 5781 5780 5779 5778 5777 5777 5777 5778 5779 5781 5783 5784 5787 5789 5791 5793 5795 5798 5801 5804 5807 5811
5841 5838 5834 5830 5826 5822 5818 5813 5809 5805 5802 5798 5795 5792 5789 5786 5784 5781 5779 5777 5775 5773 5771 5770 5769 5768 5768 5768 5768 5769 5771 5773 5775 5778 5780 5783 5785 5788 5791 5794 5797 5800 5804
5838 5834 5830 5826 5821 5817 5812 5808 5804 5800 5796 5792 5788 5785 5781 5778 5775 5773 5770 5768 5766 5764 5762 5760 5759 5758 5758 5758 5758 5759 5761 5763 5765 5768 5771 5773 5777 5780 5783 5786 5789 5793 5797